Tracking 21094 objects as of 12-Aug-2020
HD Live streaming from Space Station
objects crossing your sky now
Track the most recent launched group of Starlink satellites

OPS 1264 (DMSP 4A F4)

Track OPS 1264 (DMSP 4A F4) now!
10-day predictions
OPS 1264 (DMSP 4A F4) is classified as:


NORAD ID: 2980
Int'l Code: 1967-096A
Perigee: 631.7 km
Apogee: 772.9 km
Inclination: 99.2 °
Period: 98.7 minutes
Semi major axis: 7073 km
RCS: 0.6338 m2 (medium)
Launch date: October 11, 1967
Source: United States (US)
Launch site: AIR FORCE WESTERN TEST RANGE (AFWTR)
aabbcc
Your satellite tracking list
Your tracking list is empty




NASA's NSSDC Master Catalog

Two Line Element Set (TLE):
1  2980U 67096A   20224.92237495 +.00000011 +00000-0 +14549-4 0  9997
2  2980 099.2332 030.9067 0099800 104.8158 256.4120 14.59380469775409
Source of the keplerian elements: AFSPC